[[{"header":{"parameterUnit":"m.s-1","parameterCategory":1,"la1":30.2991,"la2":30.254,"lo1":-89.0895,"lo2":-89.0444,"dy":0.0017,"dx":0.0017,"nx":28,"ny":28,"refTime":"2023-08-14T03:00:00:Z","depth":0,"parameterNumber":2,"parameterNumberName":"U-component_of_WINDS"},"data":[0,0,0,0,0,0,0,0,0,0,0,0,0,0,0,0,0,0,0,0,0,0,0,0,0,0,0,0,0,0,0,0,0,0,0,0,0,0,0,0,0,0,0,0,0,0,0,0,0,0,0,0,0,0,0,0,0,0,3.6003,3.6002,0,3.5951,3.595,3.595,3.5891,3.589,3.5889,3.5889,3.5828,3.5827,3.5827,0,0,0,0,0,0,0,0,0,0,0,0,0,3.6049,3.6049,3.6003,3.6002,3.6002,3.5951,3.595,3.5949,3.5891,3.589,3.5889,3.5888,3.5829,3.5828,3.5827,0,0,0,0,0,0,0,0,0,0,0,0,0,3.6016,3.6049,3.6003,3.5967,3.5963,3.5951,3.595,3.5949,3.5891,3.589,3.5889,3.5888,3.5829,3.5828,3.5826,3.5844,0,0,3.5823,3.5822,0,0,0,0,0,0,0,0,3.6018,3.6015,3.5973,3.5969,3.5965,3.5926,3.5944,3.5914,3.5892,3.5918,3.5889,3.5887,3.5861,3.5857,3.585,3.5841,3.5839,3.5823,3.5822,3.5821,3.5821,0,0,0,0,0,0,0,3.6021,3.6017,3.5982,3.5972,3.5967,3.5952,3.5946,3.5938,3.5897,3.5916,3.5912,3.5907,3.5859,3.5852,3.5848,3.5838,3.5823,3.5821,3.5821,3.582,3.5846,3.5847,0,0,0,0,0,0,3.6029,3.6019,3.5984,3.598,3.5989,3.5952,3.5946,3.594,3.5897,3.589,3.5908,3.5904,3.5854,3.585,3.5846,3.5866,3.5821,3.582,3.5819,3.5844,3.5846,3.5848,0,0,0,0,0,0,3.603,3.6027,3.5986,3.5999,3.5992,3.5953,3.5947,3.5939,3.5932,3.5891,3.5883,3.5908,3.5853,3.5848,3.5847,3.5863,3.582,3.5818,3.5843,3.5845,3.5847,3.5905,0,0,0,0,0,0,3.6032,3.6027,3.6033,3.5999,3.5992,3.5988,3.5948,3.5939,3.5931,3.5925,3.5889,3.5882,3.5852,3.5849,3.5845,3.5861,3.5817,3.5841,3.5844,3.5846,3.5902,3.5909,3.5916,0,0,0,0,0,3.6034,3.6049,3.6034,3.603,3.5999,3.5989,3.5984,3.5951,3.5932,3.5938,3.5913,3.5883,3.5863,3.5849,3.5845,3.586,3.584,3.5843,3.5846,3.5898,3.5908,3.5915,0,0,0,0,0,0,3.6081,3.6044,3.6026,3.6032,3.6015,3.5979,3.5985,3.5961,3.5947,3.5942,3.59,3.5893,3.5897,3.5878,3.5864,3.5878,3.5847,3.585,3.5889,3.5897,3.5904,3.5907,3.5816,0,0,0,0,0,3.6094,3.609,3.6057,3.6064,3.6057,3.6024,3.6017,3.5995,3.5974,3.5965,3.594,3.5919,3.5909,3.5902,3.589,3.59,3.5892,3.5909,3.5916,3.5922,3.5924,3.5931,3.5939,3.5858,3.5858,3.5858,0,0,3.6116,3.6095,3.6095,3.6074,3.6058,3.6055,3.6017,3.6013,3.6011,3.5964,3.5962,3.5944,3.5919,3.5925,3.5926,3.5909,3.5946,3.5926,3.5931,3.593,3.5935,3.5943,3.595,3.586,3.586,3.586,0,0,3.6156,3.614,3.6147,3.6134,3.6112,3.609,3.6093,3.6063,3.605,3.6049,3.6015,3.6011,3.5993,3.5978,3.5967,3.6011,3.5983,3.6009,3.6043,3.6051,3.6058,3.6063,3.608,3.6086,3.6011,3.6011,3.6011,0,3.6186,3.6181,3.6152,3.6153,3.6146,3.6109,3.6116,3.6104,3.6078,3.6074,3.6057,3.6038,3.6018,3.6021,3.6033,3.6026,3.6027,3.601,3.606,3.6065,3.6069,3.6085,3.6091,3.6014,3.6014,3.6014,3.6013,0,3.622,3.6218,3.6226,3.6208,3.6202,3.6205,3.6177,3.6174,3.6155,3.6135,3.6137,3.6114,3.6098,3.6098,3.6075,3.6099,3.609,3.6068,3.6036,3.6081,3.6094,3.61,3.6019,3.6018,3.6017,3.6016,0,0,3.6281,3.6254,3.6257,3.625,3.6227,3.6224,3.6229,3.6217,3.6217,3.6202,3.6205,3.6195,3.6175,3.6164,3.6141,3.6149,3.6188,3.6125,3.6124,3.6138,3.6214,3.6231,3.6238,3.6171,3.6172,3.6173,3.6217,0,3.6317,3.6323,3.6301,3.6313,3.6312,3.6281,3.6285,3.6272,3.6256,3.6252,3.6234,3.6228,3.6202,3.6196,3.6202,3.6181,3.6202,3.6178,3.6172,3.6172,3.6177,3.6245,3.6261,3.6303,3.6222,3.6223,3.6223,0,3.6356,3.635,3.6364,3.6346,3.6345,3.6349,3.6339,3.6337,3.6323,3.6311,3.6303,3.6279,3.6282,3.6256,3.626,3.6245,3.6242,3.6232,3.6233,3.6229,3.6198,3.6242,3.6315,3.6321,3.6231,3.6231,3.623,0,3.6401,3.6395,3.6404,3.6399,3.6378,3.6383,3.6374,3.6359,3.6356,3.6348,3.6345,3.6337,3.6331,3.6326,3.6301,3.6284,3.6309,3.6279,3.6299,3.63,3.6302,3.6302,3.6375,3.6304,3.6304,3.6304,3.6303,0,3.6441,3.645,3.6424,3.6429,3.644,3.6416,3.6427,3.6415,3.6403,3.6405,3.6378,3.638,3.6349,3.6348,3.6329,3.6337,3.6334,3.6324,3.6319,3.6326,3.6327,3.6321,3.6317,3.6305,3.6305,3.6304,3.6304,0,3.6489,3.6473,3.648,3.6464,3.646,3.6469,3.6454,3.6458,3.6444,3.6447,3.6446,3.6423,3.6421,3.6398,3.6389,3.6377,3.6392,3.6381,3.6397,3.6393,3.6414,3.6413,3.6484,3.6493,3.6418,3.6418,3.6419,0,3.6515,3.6523,3.6509,3.6511,3.6505,3.6507,3.6506,3.6484,3.6483,3.6472,3.6478,3.6475,3.6471,3.647,3.6451,3.6447,3.6435,3.6461,3.6433,3.6442,3.6435,3.6435,3.6436,3.6465,3.6466,3.6467,3.6468,0,3.6563,3.6556,3.6556,3.6556,3.6557,3.6554,3.6549,3.6551,3.6528,3.6529,3.6529,3.6527,3.6523,3.652,3.6514,3.6503,3.6482,3.6478,3.6482,3.6488,3.6497,3.6493,3.6412,3.6475,3.6474,3.6474,3.6473,3.6473,3.66,3.6607,3.6601,3.6604,3.66,3.6598,3.6603,3.6592,3.6593,3.659,3.6577,3.6581,3.6571,3.656,3.6553,3.6556,3.6542,3.6548,3.6549,3.655,3.6555,3.65,3.6554,3.6554,3.6554,3.6553,3.6553,0,3.6646,3.6643,3.6647,3.6644,3.6647,3.6633,3.6629,3.6631,3.6636,3.663,3.663,3.6633,3.6632,3.6617,3.6615,3.662,3.661,3.662,3.6618,3.6617,3.6567,3.6563,3.6628,3.6628,3.6628,3.6628,3.6628,3.6628,3.6671,3.6683,3.6678,3.6689,3.6685,3.6691,3.669,3.6689,3.6685,3.6691,3.6692,3.6684,3.6675,3.6674,3.6674,3.6669,3.6669,3.6682,3.6674,3.6627,3.662,3.6613,3.6609,3.6683,3.6683,3.6724,3.6725,3.6725]},{"header":{"parameterUnit":"m.s-1","parameterCategory":1,"la1":30.2991,"la2":30.254,"lo1":-89.0895,"lo2":-89.0444,"dy":0.0017,"dx":0.0017,"nx":28,"ny":28,"refTime":"2023-08-14T03:00:00:Z","depth":0,"parameterNumber":3,"parameterNumberName":"V-component_of_WINDS"},"data":[0,0,0,0,0,0,0,0,0,0,0,0,0,0,0,0,0,0,0,0,0,0,0,0,0,0,0,0,0,0,0,0,0,0,0,0,0,0,0,0,0,0,0,0,0,0,0,0,0,0,0,0,0,0,0,0,0,0,4.2303,4.2309,0,4.2873,4.2879,4.2886,4.2917,4.2911,4.2904,4.2898,4.3474,4.3495,4.3516,0,0,0,0,0,0,0,0,0,0,0,0,0,4.123,4.125,4.2302,4.2309,4.2317,4.2872,4.288,4.2887,4.2918,4.291,4.2902,4.2895,4.3467,4.3492,4.3518,0,0,0,0,0,0,0,0,0,0,0,0,0,4.1737,4.1256,4.2301,4.2399,4.2414,4.287,4.288,4.289,4.292,4.291,4.29,4.2891,4.3459,4.349,4.3522,4.3917,0,0,4.362,4.3634,0,0,0,0,0,0,0,0,4.1709,4.1777,4.2378,4.2393,4.241,4.2814,4.2713,4.3234,4.2923,4.2728,4.2898,4.2886,4.3262,4.331,4.3438,4.3944,4.3968,4.3623,4.3642,4.3656,4.3665,0,0,0,0,0,0,0,4.1673,4.1752,4.2528,4.2386,4.2406,4.2411,4.2473,4.2812,4.3042,4.2744,4.2747,4.2815,4.3269,4.3407,4.3452,4.3977,4.3622,4.365,4.367,4.3683,4.4833,4.4844,0,0,0,0,0,0,4.1621,4.1723,4.251,4.2545,4.2028,4.2439,4.2507,4.2694,4.3039,4.3082,4.2823,4.2814,4.3357,4.3414,4.3472,4.3958,4.3656,4.3686,4.3704,4.4822,4.4836,4.4848,0,0,0,0,0,0,4.1598,4.1691,4.2487,4.2135,4.2237,4.2468,4.2677,4.2711,4.2849,4.3099,4.3139,4.2922,4.3351,4.3427,4.3806,4.3978,4.37,4.373,4.4809,4.4826,4.4842,4.4931,0,0,0,0,0,0,4.1567,4.1682,4.1837,4.2139,4.2256,4.2815,4.2688,4.2729,4.2905,4.29,4.3203,4.3243,4.3349,4.3758,4.3838,4.4017,4.3755,4.4794,4.4816,4.4836,4.4914,4.4949,4.4979,0,0,0,0,0,4.1528,4.1838,4.1845,4.194,4.2455,4.2825,4.2891,4.3009,4.2919,4.3075,4.3235,4.3234,4.3945,4.3796,4.3887,4.4078,4.4784,4.481,4.4835,4.4899,4.4942,4.4978,0,0,0,0,0,0,4.1549,4.188,4.1891,4.2308,4.2538,4.2829,4.3031,4.3051,4.3309,4.3293,4.3425,4.3493,4.3869,4.4011,4.3839,4.4477,4.4354,4.4399,4.4372,4.4415,4.4447,4.4406,4.3782,0,0,0,0,0,4.1602,4.1878,4.2151,4.2492,4.2607,4.2799,4.2964,4.3035,4.3277,4.3374,4.3562,4.3795,4.4071,4.425,4.4518,4.4933,4.4999,4.5109,4.5141,4.5166,4.5204,4.5433,4.5485,4.4931,4.4931,4.493,0,0,4.1715,4.193,4.2095,4.2502,4.2689,4.2968,4.2881,4.318,4.3389,4.3419,4.379,4.3935,4.4203,4.4602,4.4787,4.4732,4.5371,4.5199,4.5217,4.5242,4.5465,4.5517,4.5563,4.4948,4.4945,4.4942,0,0,4.2064,4.2255,4.2561,4.275,4.3034,4.3159,4.3231,4.352,4.3619,4.3993,4.4021,4.4268,4.4741,4.4931,4.5089,4.5507,4.5515,4.5589,4.5761,4.5982,4.6026,4.6065,4.6215,4.6267,4.5625,4.5626,4.5626,0,4.2168,4.2595,4.2714,4.3016,4.3193,4.3234,4.3543,4.3719,4.4075,4.4194,4.4127,4.4721,4.4905,4.5348,4.545,4.5576,4.5662,4.5557,4.601,4.6051,4.609,4.6233,4.6289,4.5633,4.5632,4.5632,4.5631,0,4.2708,4.3003,4.3215,4.3561,4.3761,4.4064,4.4226,4.4414,4.4465,4.4596,4.4975,4.5195,4.5509,4.5618,4.5671,4.6069,4.6026,4.5983,4.5862,4.6148,4.6285,4.6341,4.5644,4.5641,4.5639,4.5637,0,0,4.3091,4.3498,4.3574,4.3731,4.4046,4.4274,4.4576,4.4885,4.5043,4.5285,4.5541,4.5938,4.5901,4.608,4.6153,4.6348,4.6664,4.6281,4.6289,4.6346,4.7115,4.7148,4.721,4.6669,4.668,4.6689,4.7093,0,4.3477,4.4022,4.4137,4.4606,4.4878,4.4919,4.5182,4.5402,4.553,4.5777,4.5917,4.6198,4.6126,4.6235,4.6428,4.6584,4.682,4.6556,4.6908,4.6919,4.6843,4.7282,4.7318,4.7689,4.7147,4.7157,4.7163,0,4.4002,4.4259,4.4756,4.5034,4.5153,4.5388,4.5679,4.5915,4.6162,4.6242,4.6441,4.6493,4.6805,4.6666,4.7097,4.6915,4.7064,4.7162,4.7179,4.7219,4.7061,4.7335,4.781,4.7867,4.7249,4.7242,4.7236,0,4.4233,4.4703,4.5062,4.5194,4.5527,4.5691,4.5836,4.6074,4.6252,4.6503,4.6619,4.6903,4.7059,4.7275,4.7401,4.7288,4.7822,4.7694,4.7896,4.7893,4.801,4.8001,4.8518,4.8101,4.81,4.8099,4.8098,0,4.4654,4.4957,4.517,4.5391,4.573,4.5856,4.6187,4.633,4.6541,4.6788,4.6837,4.7067,4.7218,4.7467,4.7566,4.7908,4.7977,4.8049,4.8072,4.8047,4.8038,4.8149,4.8127,4.8114,4.8111,4.8108,4.8105,0,4.4972,4.5127,4.5521,4.5803,4.588,4.6118,4.6358,4.6571,4.6698,4.7009,4.7089,4.7288,4.7585,4.773,4.8097,4.8164,4.855,4.8556,4.8469,4.8478,4.8673,4.8653,4.9281,4.937,4.8891,4.8896,4.8899,0,4.5232,4.5467,4.5774,4.5944,4.6094,4.6367,4.6549,4.6679,4.6865,4.7164,4.7341,4.7639,4.7886,4.8356,4.8532,4.8812,4.8826,4.9026,4.8868,4.8835,4.8831,4.8817,4.884,4.9055,4.906,4.9064,4.9067,0,4.5678,4.5743,4.6005,4.6294,4.6509,4.6742,4.697,4.7105,4.7271,4.7477,4.7782,4.7973,4.8348,4.8643,4.8936,4.908,4.9102,4.9114,4.9176,4.9155,4.9095,4.9131,4.8548,4.91,4.9097,4.9095,4.9093,4.9091,4.5978,4.6188,4.6437,4.6726,4.6911,4.7123,4.7338,4.7492,4.775,4.8068,4.8127,4.845,4.8687,4.9082,4.9236,4.9488,4.9444,4.9533,4.9556,4.9577,4.9588,4.9052,4.9541,4.9541,4.954,4.9539,4.9539,0,4.6428,4.659,4.6854,4.7174,4.74,4.74,4.7652,4.784,4.8125,4.8346,4.8588,4.8936,4.9222,4.9418,4.9707,4.9871,4.9887,4.9942,4.9933,4.9966,4.9611,4.953,4.9924,4.9924,4.9924,4.9924,4.9924,4.9924,4.669,4.7046,4.7139,4.7585,4.7743,4.8063,4.8207,4.8401,4.8578,4.8966,4.9205,4.9331,4.9542,4.9846,5.0106,5.0156,5.0261,5.0317,5.0366,5.0032,4.9991,4.9953,4.9877,5.0338,5.0339,5.0701,5.0705,5.0707]}]]